Погода в Завьялово

Россия / Удмуртская Республика     56°47′10″N   53°22′26″E
В апреле 2022 года жителям России запретили посещать сайт meteo.paraplan.net по решению Генеральной прокуратуры. Аудитория сайта уменьшилась в 10 раз. Владельцы сайта не видят смысла в поддержке погодного сервера в таких условиях. Сайт будет закрыт в октябре.
темп.,
°C
ветер,
м/с
пор.,
м/с
влажн.,
%
обл.,
%
осадки,
мм/ч
давл.,
гПа
погр.,
м
3 октября, пн
пн301:00+12ю61473100 0.1 1016521
04:00+11ю61375100 0.2 1016434
07:00+11ю51278100 0.6 1017480
10:00+13ю6126672 1.1 1018564
13:00+17ююз7115388 0.0 1019763
16:00+17ююз61150100 0.0 1020769
19:00+13ю41159100 0.0 1022236
22:00+12ю51253100 0.0 1023330
4 октября, вт
вт401:00+10ю4115672 0.0 1024287
04:00+9ююв4105694 0.0 1025205
07:00+7ююв4115972 0.0 1026224
10:00+12ю61141100 0.0 1027423
13:00+14ю6934100 0.0 1028668
16:00+13ююв5941100 0.0 1028423
19:00+9ююв4104629 0.0 1029215
22:00+8ююв41046100 0.0 1028202
5 октября, ср
ср501:00+8ююв41046100 0.0 1028217
04:00+8ююв41046100 0.0 1028234
07:00+8ююз4954100 0.1 1028316
10:00+7ююв51281100 0.6 1027554
13:00+9ююв51157100 0.0 1026594
16:00+10ююв5114498 0.0 1025491
19:00+9ююв51246100 0.0 1024399
22:00+8ю61257100 0.3 1023518
6 октября, чт
чт601:00+7ю61178100 0.9 1022553
04:00+6ююв51092100 5.4 1020467
07:00+7ю4996100 2.6 1019484
10:00+9ю5891100 3.7 1017446
13:00+8ю4787100 0.0 1016444
16:00+9ююв3588100 0.0 1015373
19:00+7ююв4796100 0.7 1015265
22:00+7ююз249699 1.9 1014172
7 октября, пт
пт701:00+6з358489 0.0 1014155
04:00+6зюз3787100 0.0 1013347
07:00+3зюз369493 0.0 1013158
10:00+8зюз5874100 0.0 1012661
13:00+9юз6960100 0.0 10101416
16:00+6ююз41090100 0.8 1010873
19:00+7зюз599099 0.0 1010599
22:00+7зюз41095100 0.3 1009569